GW1682 Weather Reports


time (UTC)temp
C
wind
direction
speed
KPH
gust
KPH
rain 1hr
cm
rain 24hr
cm
rain mn
cm
humidity
%
barometer
mb
20260506010258 16 151 0.0 3.2 0.00 0.00 0.00 65 1014.6
20260506004759 16 154 3.2 4.8 0.00 0.00 0.00 64 1014.7
20260506001757 16 142 1.6 3.2 0.00 0.00 0.00 64 1014.8
20260506000256 16 145 1.6 4.8 0.00 0.00 0.00 64 1014.8
20260505234756 16 154 1.6 3.2 0.00 0.00 0.00 64 1014.9
20260505233303 16 172 0.0 6.4 0.00 0.00 0.00 64 1014.9
20260505231756 16 155 3.2 4.8 0.00 0.00 0.00 61 1015.1
20260505230253 16 169 1.6 4.8 0.00 0.00 0.00 60 1015.1
20260505224755 16 154 1.6 3.2 0.00 0.00 0.00 59 1015.2
20260505223254 16 220 0.0 4.8 0.00 0.00 0.00 58 1015.3
20260505221757 16 134 3.2 4.8 0.00 0.00 0.00 57 1015.3
20260505220253 16 152 1.6 6.4 0.00 0.00 0.00 58 1015.3
20260505214752 16 166 0.0 4.8 0.00 0.00 0.00 58 1015.2
20260505213254 16 158 0.0 0.0 0.00 0.00 0.00 58 1015.2
20260505210252 17 151 0.0 0.0 0.00 0.00 0.00 56 1015.3
20260505204753 17 172 0.0 3.2 0.00 0.00 0.00 55 1015.2
20260505201745 17 151 0.0 3.2 0.00 0.00 0.00 55 1015.5
20260505200243 17 152 0.0 0.0 0.00 0.00 0.00 57 1015.4
20260505193240 18 144 0.0 3.2 0.00 0.00 0.00 54 1015.4
20260505191742 18 168 0.0 0.0 0.00 0.00 0.00 55 1015.3
20260505183240 19 11 0.0 0.0 0.00 0.00 0.00 51 1015.0
20260505181736 20 3 0.0 0.0 0.00 0.00 0.00 50 1014.8
20260505180234 20 316 0.0 0.0 0.00 0.00 0.00 48 1014.6
20260505173234 21 259 0.0 0.0 0.00 0.00 0.00 44 1014.5
20260505171731 21 264 0.0 3.2 0.00 0.00 0.00 43 1014.4
20260505170237 22 257 0.0 4.8 0.00 0.00 0.00 42 1014.5
20260505164731 22 258 0.0 3.2 0.00 0.00 0.00 40 1014.4
20260505163230 22 251 1.6 8.0 0.00 0.00 0.00 38 1014.5
20260505153231 23 238 1.6 9.7 0.00 0.00 0.00 35 1014.3
20260505151730 23 223 1.6 9.7 0.00 0.00 0.00 34 1014.4
20260505140231 24 125 4.8 8.0 0.00 0.00 0.00 34 1014.5
20260505124730 24 223 3.2 11.3 0.00 0.00 0.00 32 1015.1
20260505123234 25 272 3.2 9.7 0.00 0.00 0.00 33 1015.3
20260505121730 24 265 3.2 11.3 0.00 0.00 0.00 33 1015.4
20260505120230 23 202 3.2 9.7 0.00 0.00 0.00 33 1015.5
20260505114730 23 164 8.0 17.7 0.00 0.00 0.00 36 1015.6
20260505113231 23 230 3.2 11.3 0.00 0.00 0.00 37 1015.7
20260505111731 23 252 1.6 9.7 0.00 0.00 0.00 40 1015.7
20260505110231 23 224 4.8 14.5 0.00 0.00 0.00 42 1015.8
20260505101731 22 262 1.6 11.3 0.00 0.00 0.00 39 1016.0
20260505100230 22 275 3.2 11.3 0.00 0.00 0.00 41 1016.0
20260505094731 22 216 3.2 11.3 0.00 0.00 0.00 49 1016.1
20260505093230 22 237 1.6 6.4 0.00 0.00 0.00 50 1016.1
20260505091759 22 244 3.2 11.3 0.00 0.00 0.00 50 1016.2
20260505090234 21 166 3.2 6.4 0.00 0.00 0.00 48 1016.1
20260505084749 21 188 3.2 8.0 0.00 0.00 0.00 50 1016.3
20260505081748 20 245 1.6 6.4 0.00 0.00 0.00 43 1016.4
20260505080235 20 244 1.6 6.4 0.00 0.00 0.00 41 1016.5
20260505074735 20 149 0.0 6.4 0.00 0.00 0.00 42 1016.5
20260505070238 18 265 0.0 3.2 0.00 0.00 0.00 44 1016.4
20260505064733 18 207 1.6 4.8 0.00 0.00 0.00 46 1016.4
20260505063232 17 255 0.0 0.0 0.00 0.00 0.00 46 1016.3
20260505061739 17 224 0.0 0.0 0.00 0.00 0.00 44 1016.3
20260505060239 16 224 0.0 0.0 0.00 0.00 0.00 53 1016.2
20260505054733 16 235 0.0 0.0 0.00 0.00 0.00 55 1016.3
20260505053232 15 195 0.0 3.2 0.00 0.00 0.00 60 1016.3
20260505051732 15 176 1.6 3.2 0.00 0.00 0.00 56 1016.2
20260505050238 14 159 1.6 3.2 0.00 0.00 0.00 53 1016.1
20260505041730 12 155 3.2 4.8 0.00 0.00 0.00 55 1015.9
20260505034730 12 144 1.6 4.8 0.00 0.00 0.00 58 1015.8
20260505031731 12 158 3.2 4.8 0.00 0.00 0.00 63 1015.9
20260505030230 12 175 3.2 4.8 0.00 0.00 0.00 64 1015.8
20260505024735 12 162 3.2 4.8 0.00 0.00 0.00 69 1015.9
20260505023228 12 159 1.6 4.8 0.00 0.00 0.00 76 1015.9
20260505021739 12 144 3.2 4.8 0.00 0.00 0.00 76 1016.0
20260505014739 12 151 3.2 4.8 0.00 0.00 0.00 75 1016.1
20260505013234 12 158 3.2 4.8 0.00 0.00 0.00 74 1016.2